一网星座-0583星 (ONEWEB-0583 )

导读 | 豆包AI

ONEWEB-0583是英国OneWeb低轨通信星座的组网卫星,于2022年12月8日发射升空,由空客防务与航天公司参与制造,质量约147千克,设计寿命7年。它运行在1200公里近极轨道,采用霍尔效应电推进系统升轨入位,依托Ku频段载荷提供高速互联网服务,为OneWeb全球宽带通信网络补网,主要服务政府及商业用户,补充高纬度地区网络覆盖能力。

基本信息
目录编号:
54650
目录名称:
ONEWEB-0583
国际标识:
2022-166J
轨道中心:
EARTH
卫星名称:
一网星座-0583星
卫星全名:
一网星座-0583星 (ONEWEB-0583 )
卫星状态:
在轨 (已飞行1192 天)
发射日期:
2022-12-08 UTC
国别 :
英国 (GB)
星等 :
--
轨道信息
数据来源 国际轨道数据
星历时间: 2026-03-13T10:00:59+0800
1天前
查看轨道信息
半长轴: 7555.888km
偏心率: 0.0001557
轨道倾角: 87.916°
近地点辐角 95.870°
升交点赤经 263.161°
平近点角 264.262°
近地点: 1176.574km
远地点: 1178.928km
周期: 108.940分钟
每日圈数: 13.218268
详细信息
平衡模式:
三轴稳定
覆盖范围:
全球
运营商:
一网卫星公司
运营商所在国:
英国
制造商(研发单位):
一网卫星公司
制造商所在国:
英国
使用方式:
暂无
卫星简介
OneWeb卫星网络由648颗重约125公斤的微型卫星组成,运行在1200公里的轨道上。 每颗卫星都能够提供至少每秒8千兆位的吞吐量,以使用其高吞吐量的Ku频段有效载荷为家庭和移动平台提供互联网接入。该卫星仍在工作。
2D轨道图
3D轨道图
轨道高度分析图
轨道倾角分析图
轨道综合分析图
查看轨道综合分析图